#timestamp,LO_Frequency,Hit,StdDev 
1511967615.4,286047000.9,N
1511967635.3,286047000.7,N
1511967655.1,286046999.1,N
1511967675.8,286046995.4,N
1511967695.7,286046994.3,N
1511967715.5,286046993.7,N
1511967735.3,286046993.6,N
1511967755.2,286046997.9,N
1511967775.9,286047001.7,N
1511967795.7,286047001.3,N
1511967815.6,286047003.7,N
1511967835.4,286047002.1,N
1511967855.2,286046999.9,N
1511967875.0,286047003.9,N
1511967876.0,286047003.9,N
1511967895.8,286047006.8,N
1511967915.6,286047004.8,N
1511967935.4,286047004.3,N
1511967955.3,286047001.5,N
1511967975.1,286047003.4,N
1511967995.8,286047002.5,N
1511968015.7,286046998.9,N
1511968035.5,286046999.4,N
1511968055.3,286047000.7,N
1511968075.2,286047002.3,N
1511968095.9,286047000.9,N
1511968115.7,286047000.7,N
1511968135.6,286046998.4,N
1511968155.4,286047000.4,N
1511968175.2,286046999.1,N
1511968195.1,286046996.9,N
1511968196.0,286046996.9,N
1511968215.8,286046997.0,N
1511968235.6,286046993.9,N
1511968255.4,286046995.2,N
1511968275.3,286046996.4,N
1511968295.1,286046993.7,N
1511968315.8,286046996.3,N
1511968335.7,286046996.1,N
1511968355.5,286046994.1,N
1511968375.3,286046990.3,N
1511968395.2,286046990.9,N
1511968415.9,286046991.9,N
1511968435.7,286046992.8,N
1511968455.6,286046993.3,N
1511968475.4,286046993.6,N
1511968495.2,286046992.1,N
1511968515.1,286046993.2,N
1511968516.0,286046993.2,N
1511968535.8,286046992.5,N
1511968555.6,286046988.6,Y
1511968575.5,286046997.7,P
1511968595.3,286046998.5,N
1511968615.1,286046996.5,P
1511968635.9,286046997.1,Y
1511968655.7,286047000.1,P
1511968675.5,286047000.5,N
1511968695.4,286047001.3,N
1511968715.2,286047005.1,Y
1511968735.0,286047007.5,P
1511968735.9,286047007.5,N
1511968755.8,286047005.0,N
1511968775.6,286047008.5,N
1511968795.4,286047008.5,N
1511968815.2,286047007.0,N
1511968835.1,286047007.4,N
1511968836.0,286047007.4,N
1511968855.8,286047007.4,N
1511968875.7,286047008.9,Y
1511968895.5,286046998.4,P
1511968915.3,286046996.6,N
1511968935.1,286046993.6,N
1511968955.9,286046996.3,N
1511968975.7,286046994.6,N
1511968995.5,286046994.4,N
1511969015.4,286046993.9,N
1511969035.2,286046993.5,N
1511969055.0,286046999.1,N
1511969055.9,286046999.1,N
1511969075.8,286046999.1,N
1511969095.6,286047000.8,N
1511969115.4,286046999.1,N
1511969135.3,286046999.2,N
1511969155.1,286046997.0,N
1511969156.0,286046997.0,N
1511969175.8,286046997.7,N
1511969195.7,286046995.1,N
1511969215.5,286046995.3,N
1511969235.3,286046997.1,N
1511969255.1,286046995.3,N
1511969275.9,286046999.1,N
1511969295.7,286046996.9,N
1511969315.5,286046996.4,N
1511969335.4,286046992.7,N
1511969355.2,286046991.7,N
1511969375.0,286046991.5,N
1511969375.9,286046991.5,N
1511969395.8,286046990.7,N
1511969415.6,286046992.6,N
1511969435.4,286046996.3,N
1511969455.3,286046994.1,N
1511969475.1,286046994.6,N
1511969476.0,286046994.6,N
1511969495.8,286046992.9,N
1511969515.7,286046992.8,N
1511969535.5,286046990.3,Y
1511969555.3,286046996.6,P
1511969575.2,286046999.3,N
1511969595.9,286046998.5,N
1511969615.7,286047002.3,N
1511969635.6,286047000.9,N
1511969655.4,286046998.8,N
1511969675.2,286047000.7,N
1511969695.1,286046999.0,N
1511969696.0,286046999.0,N
1511969715.8,286046999.4,N
1511969735.6,286046997.5,N
1511969755.4,286046996.9,N
1511969775.3,286046995.2,N
1511969795.1,286046995.6,N
1511969815.8,286046995.5,N
1511969835.7,286046996.3,N
1511969855.5,286046993.7,Y
1511969875.3,286046996.0,P
1511969895.2,286046997.8,N
1511969915.0,286046998.0,N
1511969915.9,286046998.0,N
1511969935.7,286046993.7,Y
1511969955.6,286046998.1,P
1511969975.4,286047000.9,P
1511969995.2,286046996.6,N
1511970015.1,286046997.9,N
1511970016.0,286046997.9,N
1511970035.8,286046997.0,N
1511970055.6,286046999.2,N
1511970075.5,286047001.2,N
1511970095.3,286046998.7,N
1511970115.1,286046996.8,N
1511970135.9,286047000.1,N
1511970155.7,286046998.1,N
1511970175.5,286046996.8,N
1511970195.4,286046999.6,N
1511970215.2,286046996.9,N
1511970235.0,286046996.5,N
1511970235.9,286046996.5,N
1511970255.8,286046995.3,Y
1511970275.6,286046998.6,P
1511970295.4,286046999.4,N
1511970315.2,286046998.9,N
1511970335.1,286046998.8,N
1511970336.0,286046998.8,N
1511970355.8,286046997.3,Y
1511970375.7,286046997.3,P
1511970395.5,286046995.9,P
1511970415.3,286046994.1,P
1511970435.2,286046990.1,Y
1511970455.9,286046994.9,P
1511970475.7,286046995.1,P
1511970495.6,286046994.9,P
1511970515.4,286046995.5,Y
1511970535.2,286046998.8,P
1511970555.1,286046998.6,N
1511970556.0,286046998.6,N
1511970575.8,286046996.5,N
1511970595.6,286046993.9,Y
1511970615.5,286046994.9,P
1511970635.3,286046997.5,N
1511970655.1,286046995.1,P
1511970675.9,286046995.0,Y
1511970695.7,286046998.9,P
1511970715.5,286046998.2,N
1511970735.4,286047000.5,N
1511970755.2,286047000.7,N
1511970775.0,286047001.2,N
1511970775.9,286047001.2,N
1511970795.7,286046996.6,N
1511970815.6,286046999.0,N
1511970835.4,286047001.2,N
1511970855.2,286046999.6,N
1511970875.1,286047001.1,N
1511970876.0,286047001.1,N
1511970895.8,286047000.3,N
1511970915.6,286046998.4,N
1511970935.5,286047000.0,N
1511970955.3,286047005.4,Y
1511970975.1,286047005.5,P
1511970995.9,286047001.9,N
1511971015.7,286047002.0,N
1511971035.5,286047000.8,N
1511971055.4,286047001.1,N
1511971075.2,286047000.6,N
1511971095.0,286047004.4,N
1511971095.9,286047004.4,N
1511971115.8,286047003.5,N
1511971135.6,286047008.2,Y
1511971155.4,286047009.8,P
1511971175.3,286047010.4,N
1511971195.1,286047015.3,P
1511971196.0,286047015.3,Y
